Effective Sunday, March 17, 2024, the National Weather Service National Data Buoy Center will discontinue its Dial-A-Buoy Interactive Voice Response system. For more information, see Service Change Notice 24-06 (PDF).

Station 41009 (LLNR 840) - CANAVERAL 20 NM East of Cape Canaveral, FL Image indicating link to RSS feed of recent meteorological observations for station 41009


Conditions at 41009 as of
(7:10 pm EST on 02/27/2024)
0010 GMT on 02/28/2024:
     

Click on the graph icon in the table below to see a time series plot of the last five days of that observation.

5-day plot - Wind Direction Wind Direction (WDIR): SE ( 140 deg true )
5-day plot - Wind Speed Wind Speed (WSPD): 15.5 kts
5-day plot - Wind Gust Wind Gust (GST): 17.5 kts
5-day plot - Atmospheric Pressure Atmospheric Pressure (PRES):30.13 in
5-day plot - Air Temperature Air Temperature (ATMP): 71.2 °F
5-day plot - Water Temperature Water Temperature (WTMP): 71.2 °F
5-day plot - Dew Point Dew Point (DEWP): 57.0 °F
5-day plot - Wind Speed at 10 Meters Wind Speed at 10 meters (WSPD10M): 15.5 kts
5-day plot - Wind Speed at 20 Meters Wind Speed at 20 meters (WSPD20M): 17.5 kts
5-day plot -  Wind Speed, Wind Gust and Atmospheric Pressure Combined plot of Wind Speed, Gust, and Air Pressure
Supplemental Measurements
Highest 1-minute Wind Speed
Time (EST)5-day plot - 1-Minute Wind Speed WSPD 5-day plot - 1-Minute Wind Direction WDIR
7:05 pm 15.5 kts-
Previous observations
TIME
(EST)
5-day plot - Wind Direction
WDIR
 
5-day plot - Wind Speed
WSPD
kts
5-day plot - Wind Gust
GST
kts
5-day plot - Wave Height
WVHT
ft
5-day plot - Dominant Wave Period
DPD
sec
5-day plot - Average Wave Period
APD
sec
5-day plot - Mean Wave Direction
MWD
 
5-day plot - Atmospheric Pressure
PRES
in
5-day plot - Pressure Tendency
PTDY
in
5-day plot - Air Temperature
ATMP
°F
5-day plot - Water Temperature
WTMP
°F
5-day plot - Dew Point
DEWP
°F
5-day plot - Salinity
SAL
psu
5-day plot - Visibility
VIS
nmi
5-day plot - Tide (above MLLW)
TIDE
ft
2024-02-27 07:00 pm SE 15.5 17.5----30.13+0.00 71.1 71.2 56.3---
2024-02-27 06:50 pm SE 13.6 15.5 2.3 94.1 NE30.14- 71.2 71.2 57.0---
2024-02-27 06:40 pm SE 13.6 15.5----30.14- 71.1 71.4 57.4---
2024-02-27 06:10 pm SE 13.6 15.5 2.3-4.4 NE30.14- 71.2 71.8 57.6---
2024-02-27 06:00 pm SE 13.6 15.5----30.14-0.01 71.2 71.8 57.0---
2024-02-27 05:50 pm SE 13.6 15.5 2.3 104.4 NE30.14- 71.1 71.8 57.2---
2024-02-27 05:40 pm SE 11.7 15.5----30.14- 71.2 71.8 57.6---
2024-02-27 05:30 pm SE 11.7 15.5----30.13- 71.2 71.8 57.4---
2024-02-27 05:20 pm SE 11.7 15.5 2.0 94.4ENE30.13- 71.2 71.8 56.8---
2024-02-27 05:10 pm SE 11.7 13.6 2.0-4.4ENE30.14- 71.2 71.8 56.7---
2024-02-27 05:00 pm SE 11.7 13.6----30.14-0.02 71.2 71.8 56.1---
2024-02-27 04:50 pm SE 11.7 13.6 2.0 94.6 NE30.14- 71.1- 57.0---
2024-02-27 04:40 pm SE 11.7 15.5----30.14- 70.7 71.8 56.7---
2024-02-27 04:30 pmSSE 11.7 13.6----30.14- 70.5 72.0 57.7---
2024-02-27 04:20 pmSSE 9.7 11.7 2.0 105.3 E30.13- 70.2 72.0 59.0---
2024-02-27 04:10 pm SE 7.8 9.7 2.0-5.3 E30.13- 70.0 72.0 60.1---
2024-02-27 04:00 pm SE 7.8 9.7----30.14-0.04 69.8 72.0 59.9---
2024-02-27 03:50 pm SE 7.8 9.7 2.3 95.4ENE30.14- 69.6 72.0 60.3---
2024-02-27 03:40 pm SE 5.8 7.8----30.14- 69.4 71.8 60.1---
2024-02-27 03:30 pmSSE 5.8 7.8----30.14- 69.3 71.8 60.3---
2024-02-27 03:20 pmSSE 5.8 7.8 2.0 95.6 NE30.15- 69.1 71.8 59.7---
2024-02-27 03:10 pmSSE 5.8 5.8 2.0-5.6 NE30.14- 69.1 71.8 59.7---
2024-02-27 03:00 pm S 3.9 5.8----30.15-0.04 69.1- 59.7---
2024-02-27 02:50 pm S 3.9 5.8 2.0 85.7 NE30.15- 68.7 71.6 59.2---
2024-02-27 02:40 pm S 5.8 7.8----30.15- 68.7 71.6 59.4---
2024-02-27 02:30 pmSSW 5.8 5.8----30.15- 68.5 71.6 59.2---
2024-02-27 02:20 pmSSW 3.9 5.8 2.3 86.3 NE30.16- 68.4 71.4 59.4---
2024-02-27 02:10 pm SW 3.9 5.8----30.16- 68.0 71.4 59.4---
2024-02-27 02:00 pm SW 5.8 5.8----30.16-0.04 68.0 71.4 59.4---
2024-02-27 01:50 pm SW 5.8 5.8 2.3 105.9ENE30.16- 68.0- 59.5---
2024-02-27 01:40 pm SW 5.8 5.8----30.16- 67.8 71.4 59.4---
2024-02-27 01:30 pmWSW 5.8 7.8----30.17- 67.8 71.4 59.4---
2024-02-27 01:20 pm SW 5.8 7.8 2.3 96.0ENE30.17- 68.0 71.4 59.7---
2024-02-27 01:10 pm SW 5.8 7.8----30.17- 68.2 71.2 59.5---
2024-02-27 01:00 pmSSW 5.8 7.8----30.17-0.03 68.2 71.2 59.4---
2024-02-27 12:50 pmSSW 5.8 7.8 2.0 96.1ENE30.17- 68.2 71.2 59.2---
2024-02-27 12:40 pmSSW 7.8 9.7----30.17- 68.2 71.2 59.0---
2024-02-27 12:30 pmSSW 7.8 9.7----30.17- 68.0 71.2 58.8---
2024-02-27 12:20 pmSSW 7.8 9.7 2.3 96.3 NE30.17- 68.0 71.1 58.6---
2024-02-27 12:10 pmSSW 7.8 9.7 2.3-6.3 NE30.18- 67.8 71.1 58.5---
2024-02-27 12:00 pmSSW 7.8 9.7----30.19-0.01 67.8 71.1 58.5---
2024-02-27 11:50 amSSW 7.8 9.7 2.0 85.9 NE30.19- 67.8 70.9 58.3---
2024-02-27 11:40 amSSW 7.8 9.7----30.19- 67.6 70.9 58.3---
2024-02-27 11:30 amSSW 7.8 9.7----30.20- 67.5 70.9 58.3---
2024-02-27 11:20 amSSW 7.8 9.7 2.3 105.7 NE30.20- 67.3 70.9 57.9---
2024-02-27 11:10 amSSW 7.8 9.7 2.3-5.7 NE30.20- 67.1 70.9 57.6---
2024-02-27 11:00 amSSW 7.8 9.7----30.20+0.01 67.1 70.9 57.7---
2024-02-27 10:50 amSSW 7.8 9.7 2.0 85.4 NE30.20- 67.1 70.7 57.9---
2024-02-27 10:40 amSSW 7.8 9.7----30.20- 66.9 70.7 57.6---
2024-02-27 10:30 am SW 7.8 9.7----30.20- 67.1 70.7 57.9---
2024-02-27 10:20 am SW 7.8 9.7 2.3 95.7ENE30.21- 66.9 70.7 57.7---
2024-02-27 10:10 am SW 7.8 9.7----30.20- 66.9 70.5 57.7---
2024-02-27 10:00 am SW 5.8 9.7----30.20+0.03 66.9 70.7 57.7---
2024-02-27 09:50 am SW 5.8 7.8 2.3 85.5 NE30.20- 67.1 70.5 57.7---
2024-02-27 09:40 am SW 5.8 7.8----30.21- 67.1 70.7 57.6---
2024-02-27 09:30 am SW 5.8 7.8----30.21- 67.1 70.7 57.7---
2024-02-27 09:20 am SW 5.8 7.8 2.0 104.9ENE30.20- 66.9 70.7 57.6---
2024-02-27 09:10 am SW 5.8 7.8----30.20- 66.9 70.7 57.9---
2024-02-27 09:00 am SW 5.8 7.8----30.20+0.03 66.7 70.7 57.9---
2024-02-27 08:50 am SW 5.8 9.7 2.0 95.0 NE30.21- 66.6 70.7 57.9---
2024-02-27 08:40 am SW 5.8 7.8----30.21- 66.7 70.7 57.9---
2024-02-27 08:30 am SW 5.8 7.8----30.20- 66.7 70.7 58.1---
2024-02-27 08:20 am SW 5.8 7.8 2.3 85.2 NE30.20- 66.7 70.7 58.5---
2024-02-27 08:10 am SW 5.8 7.8----30.19- 66.4 70.7 58.3---
2024-02-27 08:00 am SW 5.8 7.8----30.19+0.03 66.4 70.7 58.3---
2024-02-27 07:50 am SW 7.8 9.7 2.0 94.9NNE30.19- 66.4 70.7 58.3---
2024-02-27 07:40 am SW 7.8 7.8----30.19- 66.4 70.7 58.6---
2024-02-27 07:30 am SW 7.8 9.7----30.18- 66.2 70.7 58.1---
2024-02-27 07:20 am SW 5.8 7.8 2.0 94.7 NE30.18- 66.6 70.7 58.5---
2024-02-27 07:10 am SW 7.8 9.7 2.0-4.7 NE30.17- 66.9 70.7 58.3---
2024-02-27 07:00 am SW 7.8 9.7----30.17+0.03 66.9 70.7 57.9---
2024-02-27 06:50 amSSW 7.8 9.7 2.0 95.0 NE30.17- 66.7 70.7 57.7---
2024-02-27 06:40 am SW 7.8 9.7----30.16- 66.6 70.7 58.1---
2024-02-27 06:30 am SW 7.8 9.7----30.17- 66.6 70.7 57.9---
2024-02-27 06:20 am SW 7.8 9.7 2.0 104.7ENE30.17- 66.6 70.7 58.1---
2024-02-27 06:10 am SW 7.8 11.7 2.0-4.7ENE30.18- 66.2 70.7 57.9---
2024-02-27 06:00 am SW 7.8 9.7----30.18+0.02 66.2 70.7 58.5---
2024-02-27 05:50 am SW 7.8 9.7 2.3 84.7 NE30.18- 66.0 70.7 58.3---
2024-02-27 05:40 am SW 7.8 9.7----30.17- 65.7 70.7 58.5---
2024-02-27 05:30 am SW 7.8 9.7----30.17- 66.0 70.7 59.4---
2024-02-27 05:20 am SW 7.8 9.7 2.3 94.4ENE30.17- 66.0 70.5 59.4---
2024-02-27 05:10 am SW 7.8 9.7 2.3-4.4ENE30.16- 66.2 70.7 59.5---
2024-02-27 05:00 am SW 9.7 11.7----30.16+0.00 66.0 70.7 59.4---
2024-02-27 04:50 am SW 9.7 11.7 2.3 94.4ENE30.16- 66.2 70.7 60.3---
2024-02-27 04:40 am SW 9.7 11.7----30.15- 66.0 70.7 60.4---
2024-02-27 04:30 am SW 9.7 11.7----30.15- 66.2 70.7 61.0---
2024-02-27 04:20 am SW 9.7 11.7 2.3 94.4ENE30.14- 66.6 70.7 61.2---
2024-02-27 04:10 am SW 9.7 11.7----30.14- 67.1 70.7 61.0---
2024-02-27 04:00 amSSW 9.7 11.7----30.14-0.02 67.6 70.7 60.4---
2024-02-27 03:50 am SW 9.7 11.7 2.6 94.5 NE30.14- 68.2 70.7 59.9---
2024-02-27 03:40 amSSW 11.7 13.6----30.15- 68.5 70.7 59.2---
2024-02-27 03:30 amSSW 11.7 13.6----30.15- 69.1 70.7 58.5---
2024-02-27 03:20 am S 11.7 13.6 2.6 104.3ENE30.15- 69.1 70.7 57.0---
2024-02-27 03:10 am S 11.7 13.6 2.6-4.3ENE30.15- 69.3 70.7 56.8---
2024-02-27 03:00 am S 11.7 13.6----30.15-0.02 69.3 70.7 56.8---
2024-02-27 02:50 am S 11.7 13.6 2.6 104.5ENE30.15- 69.3 70.7 57.4---
2024-02-27 02:40 am S 11.7 15.5----30.16- 69.3 70.7 57.0---
2024-02-27 02:30 am S 9.7 13.6----30.15- 69.3 70.7 57.4---
2024-02-27 02:20 am S 11.7 13.6 2.6 94.4 NE30.16- 69.3 70.7 56.8---
2024-02-27 02:10 am S 11.7 13.6 2.6-4.4 NE30.15- 69.3- 57.4---
2024-02-27 02:00 am S 11.7 15.5----30.16-0.03 69.3 70.9 56.8---
2024-02-27 01:50 am S 11.7 13.6 2.6 104.8 NE30.16- 69.3 70.9 56.7---
2024-02-27 01:40 am S 11.7 13.6----30.17- 69.3 70.9 56.7---
2024-02-27 01:30 amSSE 11.7 13.6----30.16- 69.3 70.9 56.7---
2024-02-27 01:20 amSSE 11.7 15.5 3.0 94.6 NE30.16- 69.3 70.9 56.3---
2024-02-27 01:10 amSSE 11.7 13.6 3.0-4.6 NE30.16- 69.1 71.1 56.1---
2024-02-27 01:00 amSSE 11.7 15.5----30.16-0.01 69.1 71.1 56.3---
2024-02-27 12:50 amSSE 11.7 13.6 2.6 94.5 NE30.17- 69.1 71.1 55.9---
2024-02-27 12:40 amSSE 11.7 13.6----30.17- 69.1 71.1 55.9---
2024-02-27 12:30 amSSE 9.7 13.6----30.17- 69.1 71.2 55.9---
2024-02-27 12:20 amSSE 11.7 13.6 2.6 94.3ENE30.18- 68.9 71.2 55.6---
2024-02-27 12:10 amSSE 11.7 13.6 2.6-4.3ENE30.17- 68.9 71.2 55.6---
2024-02-27 12:00 amSSE 11.7 13.6----30.18+0.00 68.9 71.4 55.4---
2024-02-26 11:50 pmSSE 11.7 15.5 2.6 104.2 NE30.18- 68.9 71.4 54.9---
2024-02-26 11:40 pmSSE 13.6 15.5----30.18- 69.1 71.4 55.2---
2024-02-26 11:30 pm SE 11.7 15.5----30.18- 68.9 71.6 55.0---
2024-02-26 11:20 pmSSE 11.7 15.5 2.6 94.5NNE30.18- 69.1 71.6 54.7---
2024-02-26 11:10 pm SE 11.7 15.5 2.6-4.5NNE30.18- 68.9 71.6 54.9---
2024-02-26 11:00 pm SE 11.7 15.5----30.19+0.02 68.9 71.6 54.9---
2024-02-26 10:50 pmSSE 13.6 15.5 2.6 104.4 NE30.18- 68.9 71.6 54.7---
2024-02-26 10:40 pm SE 13.6 15.5----30.18- 68.9 71.6 54.9---
2024-02-26 10:30 pm SE 13.6 17.5----30.17- 68.9 71.6 55.2---
2024-02-26 10:20 pm SE 13.6 17.5 2.6 104.4ENE30.16- 68.9 71.6 55.2---
2024-02-26 10:10 pm SE 13.6 15.5----30.16- 68.9 71.6 55.2---
2024-02-26 10:00 pm SE 13.6 15.5----30.18+0.02 68.9 71.6 54.9---
2024-02-26 09:50 pmSSE 13.6 15.5 2.6 94.5 NE30.17- 68.9 71.6 54.9---
2024-02-26 09:40 pm SE 13.6 15.5----30.17- 68.9 71.6 54.9---
2024-02-26 09:30 pmSSE 13.6 15.5----30.17- 68.9 71.6 55.0---
2024-02-26 09:20 pmSSE 13.6 17.5 2.3 94.6ENE30.17- 69.1 71.4 55.6---
2024-02-26 09:10 pm SE 13.6 15.5 2.3-4.6ENE30.18- 68.9 71.6 54.7---
2024-02-26 09:00 pmSSE 13.6 15.5----30.17+0.01 69.1 71.6 55.2---
2024-02-26 08:50 pm SE 13.6 15.5 2.6 104.9 NE30.17- 68.9 71.6 55.4---
2024-02-26 08:40 pm SE 13.6 15.5----30.17- 68.9 71.4 55.2---
2024-02-26 08:30 pm SE 11.7 15.5----30.17- 69.1 71.2 55.4---
2024-02-26 08:20 pm SE 11.7 15.5 2.6 105.3 NE30.16- 68.9 71.1 55.4---
2024-02-26 08:10 pm SE 13.6 15.5 2.6-5.3 NE30.16- 68.9 71.1 55.2---
2024-02-26 08:00 pm SE 11.7 15.5----30.16+0.01 68.9- 55.2---
2024-02-26 07:50 pm SE 11.7 15.5 2.3 85.5 NE30.16- 69.1 71.1 55.0---
2024-02-26 07:40 pm SE 11.7 13.6----30.17- 69.1 71.1 55.4---
2024-02-26 07:30 pm SE 11.7 13.6----30.16- 69.1 71.2 55.8---
2024-02-26 07:20 pm SE 11.7 13.6 2.3 95.7ENE30.16- 69.1 71.2 54.9---
2024-02-26 07:10 pm SE 11.7 13.6 2.3-5.7ENE30.16- 69.1 71.4 54.9---
2024-02-26 07:00 pm SE 11.7 13.6----30.16-0.01 69.3 71.4 55.2---
2024-02-26 06:50 pm SE 11.7 13.6 2.0 105.8ENE30.16- 69.3 71.4 54.7---

Detailed Wave Summary
for 41009 as of (6:40 pm EST)
2340 GMT on 02/27/2024:

These wave data are displayed in rounded times.

     

Click on the graph icon in the table below to see a time series plot of the last five days of that observation.

5-day plot - Significant Wave Height Significant Wave Height (WVHT): 2.3 ft
5-day plot - Swell Height Swell Height (SwH): 1.6 ft
5-day plot - Swell Period Swell Period (SwP): 9.1 sec
5-day plot - Swell Direction Swell Direction (SwD): NE
5-day plot - Wind Wave Height Wind Wave Height (WWH): 1.3 ft
5-day plot - Wind Wave Period Wind Wave Period (WWP): 2.9 sec
5-day plot - Wind Wave Direction Wind Wave Direction (WWD):ESE
5-day plot - Average Wave Period Average Wave Period (APD): 4.1 sec
Previous observations
TIME
(EST)
5-day plot - Wave Height
WVHT
ft
5-day plot - Swell Height
SwH
ft
5-day plot - Swell Period
SwP
sec
5-day plot - Swell Direction
SwD
 
5-day plot - Wind Wave Height
WWH
ft
5-day plot - Wind Wave Period
WWP
sec
5-day plot - Wind Wave Direction
WWD
 
5-day plot - Wave Steepness
STEEPNESS
 
5-day plot - Average Wave Period
APD
sec
2024-02-27 06:10 pm 2.3 2.0 10.0 NE 1.3 2.7 SE N/A 4.4
2024-02-27 05:40 pm 2.3 1.6 10.0 NE 1.3 2.9 ESE N/A 4.4
2024-02-27 05:10 pm 2.0 1.6 9.1ENE 1.3 5.6 NE N/A 4.4
2024-02-27 04:40 pm 2.0 1.6 9.1 NE 1.3 3.0 ESE N/A 4.6
2024-02-27 04:10 pm 2.0 2.0 10.0 E 1.0 3.2 ESE N/A 5.3
2024-02-27 03:40 pm 2.3 2.0 9.1ENE 1.0 3.6 ESE N/A 5.4
2024-02-27 03:10 pm 2.0 2.0 9.1 NE 1.0 3.2 ESE N/A 5.6
2024-02-27 02:40 pm 2.0 2.0 8.3 NE 0.7 3.0 SE N/A 5.7
2024-02-27 02:10 pm 2.3 2.3 7.7 NE 0.7 3.0 SE N/A 6.3
2024-02-27 01:40 pm 2.3 2.0 10.0ENE 0.7 3.2 SE N/A 5.9
2024-02-27 01:10 pm 2.3 2.0 9.1ENE 0.7 2.9 SE N/A 6.0
2024-02-27 12:40 pm 2.0 2.0 9.1ENE 0.7 3.4 ESE N/A 6.1
2024-02-27 12:10 pm 2.3 2.3 9.1 NE 0.7 2.9 SE N/A 6.3
2024-02-27 11:40 am 2.0 2.0 7.7 NE 0.7 2.9 SE N/A 5.9
2024-02-27 11:10 am 2.3 2.0 10.0 NE 0.7 3.0 SE N/A 5.7
2024-02-27 10:40 am 2.0 1.6 7.7 NE 0.7 2.9 ESE N/A 5.4
2024-02-27 10:10 am 2.3 2.0 9.1ENE 0.7 3.1 SE N/A 5.7
2024-02-27 09:40 am 2.3 2.0 8.3 NE 1.0 2.9 SE N/A 5.5
2024-02-27 09:10 am 2.0 2.0 10.0ENE 1.0 2.7 SE N/A 4.9
2024-02-27 08:40 am 2.0 1.6 9.1 NE 1.0 3.1 SSE N/A 5.0
2024-02-27 08:10 am 2.3 2.0 8.3 NE 1.0 2.9 SE N/A 5.2
2024-02-27 07:40 am 2.0 1.6 9.1NNE 1.0 3.1 SE N/A 4.9
2024-02-27 07:10 am 2.0 1.6 9.1 NE 1.0 2.9 SE N/A 4.7
2024-02-27 06:40 am 2.0 2.0 9.1 NE 1.0 2.9 SE N/A 5.0
2024-02-27 06:10 am 2.0 1.6 10.0ENE 1.0 3.0 SSE N/A 4.7
2024-02-27 05:40 am 2.3 2.0 8.3 NE 1.3 3.1 SSE N/A 4.7
2024-02-27 05:10 am 2.3 1.6 9.1ENE 1.3 3.0 SE N/A 4.4
2024-02-27 04:40 am 2.3 2.0 9.1ENE 1.3 3.0 SE N/A 4.4
2024-02-27 04:10 am 2.3 2.0 9.1ENE 1.3 2.9 SSE N/A 4.4
2024-02-27 03:40 am 2.6 2.0 9.1 NE 1.6 3.2 SE N/A 4.5
2024-02-27 03:10 am 2.6 2.0 10.0ENE 1.6 3.0 SE N/A 4.3
2024-02-27 02:40 am 2.6 2.0 10.0ENE 1.6 3.3 SE SWELL 4.5
2024-02-27 02:10 am 2.6 2.0 9.1 NE 1.6 3.1 SE N/A 4.4
2024-02-27 01:40 am 2.6 2.3 10.0 NE 1.6 3.2 SE SWELL 4.8
2024-02-27 01:10 am 3.0 2.3 9.1 NE 1.6 3.3 SE SWELL 4.6
2024-02-27 12:40 am 2.6 2.0 9.1 NE 1.6 3.1 SE SWELL 4.5
2024-02-27 12:10 am 2.6 2.0 9.1ENE 1.6 2.9 SE SWELL 4.3
2024-02-26 11:40 pm 2.6 2.0 10.0 NE 1.6 3.1 SE SWELL 4.2
2024-02-26 11:10 pm 2.6 2.3 9.1NNE 1.6 2.7 SE SWELL 4.5
2024-02-26 10:40 pm 2.6 2.3 10.0 NE 1.6 3.0 SE SWELL 4.4
2024-02-26 10:10 pm 2.6 2.0 10.0ENE 1.3 2.7 SE N/A 4.4
2024-02-26 09:40 pm 2.6 2.3 9.1 NE 1.3 2.6 ESE N/A 4.5
2024-02-26 09:10 pm 2.3 2.0 9.1ENE 1.3 2.5 SE N/A 4.6
2024-02-26 08:40 pm 2.6 2.3 10.0 NE 1.3 5.0 NNE N/A 4.9
2024-02-26 08:10 pm 2.6 1.6 10.0 NE 1.6 6.2 NE N/A 5.3
2024-02-26 07:40 pm 2.3 2.0 8.3 NE 1.3 2.1 ESE N/A 5.5
2024-02-26 07:10 pm 2.3 1.6 9.1ENE 1.3 5.9 NNE N/A 5.7

Plot of wave energy versus frequency (and period)